TimeEDT,TemperatureF,Dew PointF,Humidity,Sea Level PressureIn,VisibilityMPH,Wind Direction,Wind SpeedMPH,Gust SpeedMPH,PrecipitationIn,Events,Conditions,WindDirDegrees,DateUTC
12:51 AM,81.0,75.9,85,29.87,8.0,WSW,11.5,-,N/A,,Overcast,240,2013-08-29 04:51:00
2:51 AM,81.0,75.0,82,29.84,7.0,WSW,13.8,20.7,N/A,,Mostly Cloudy,250,2013-08-29 06:51:00
3:51 AM,80.1,75.0,85,29.83,8.0,West,9.2,-,0.00,Rain,Light Rain,260,2013-08-29 07:51:00
4:51 AM,78.1,75.0,90,29.83,5.0,West,10.4,17.3,0.03,Rain,Light Rain,260,2013-08-29 08:51:00
5:51 AM,79.0,73.9,84,29.81,7.0,West,11.5,18.4,0.00,,Overcast,260,2013-08-29 09:51:00
6:51 AM,80.1,73.9,81,29.82,6.0,West,11.5,19.6,N/A,,Haze,260,2013-08-29 10:51:00
7:51 AM,80.1,73.9,81,29.83,6.0,West,10.4,17.3,N/A,,Haze,280,2013-08-29 11:51:00
12:51 PM,84.0,73.0,69,29.87,9.0,Variable,5.8,-,N/A,,Mostly Cloudy,0,2013-08-29 16:51:00
1:33 PM,82.4,73.4,74,29.87,8.0,North,8.1,-,N/A,,Overcast,10,2013-08-29 17:33:00
1:51 PM,80.1,72.0,76,29.88,9.0,NE,9.2,17.3,0.00,Rain,Light Rain,40,2013-08-29 17:51:00
2:00 PM,78.8,71.6,78,29.88,10.0,NE,10.4,18.4,0.00,,Overcast,50,2013-08-29 18:00:00
2:51 PM,79.0,71.1,77,29.88,10.0,NE,6.9,16.1,0.00,,Overcast,40,2013-08-29 18:51:00
3:15 PM,78.8,71.6,78,29.88,10.0,NE,9.2,18.4,N/A,,Overcast,40,2013-08-29 19:15:00
3:51 PM,80.1,70.0,71,29.89,10.0,NNE,10.4,18.4,N/A,,Overcast,30,2013-08-29 19:51:00
4:43 PM,80.6,71.6,74,29.90,10.0,NNE,10.4,20.7,N/A,,Overcast,30,2013-08-29 20:43:00
4:51 PM,80.1,71.1,74,29.90,10.0,NNE,11.5,20.7,N/A,,Overcast,30,2013-08-29 20:51:00
5:51 PM,80.1,72.0,76,29.90,10.0,NE,12.7,21.9,N/A,,Mostly Cloudy,40,2013-08-29 21:51:00
6:51 PM,78.1,70.0,76,29.91,10.0,NE,10.4,20.7,N/A,,Mostly Cloudy,40,2013-08-29 22:51:00
7:51 PM,77.0,70.0,79,29.93,10.0,NE,15.0,23.0,N/A,,Mostly Cloudy,40,2013-08-29 23:51:00
8:35 PM,75.2,69.8,83,29.93,10.0,NE,10.4,23.0,N/A,,Scattered Clouds,40,2013-08-30 00:35:00
8:51 PM,75.9,70.0,82,29.94,10.0,NE,9.2,18.4,N/A,,Mostly Cloudy,40,2013-08-30 00:51:00
9:00 PM,75.2,69.8,83,29.94,10.0,NE,12.7,24.2,N/A,,Scattered Clouds,40,2013-08-30 01:00:00
9:43 PM,75.2,69.8,83,29.97,10.0,NE,10.4,21.9,N/A,,Mostly Cloudy,50,2013-08-30 01:43:00
9:51 PM,75.9,69.1,79,29.97,10.0,NE,10.4,19.6,N/A,,Scattered Clouds,40,2013-08-30 01:51:00
10:18 PM,75.2,69.8,83,29.97,10.0,NE,10.4,-,N/A,,Mostly Cloudy,50,2013-08-30 02:18:00
10:51 PM,75.0,69.1,82,29.97,10.0,ENE,9.2,18.4,N/A,,Mostly Cloudy,60,2013-08-30 02:51:00
11:04 PM,75.2,69.8,83,29.97,10.0,NE,11.5,21.9,N/A,,Scattered Clouds,50,2013-08-30 03:04:00
11:51 PM,75.0,68.0,79,29.98,10.0,ENE,8.1,-,N/A,,Clear,60,2013-08-30 03:51:00